Walhalla, ND

11:38 PM CST on December 12, 2017 (GMT -0600)
Walhalla

Weather History for K96D - May, 2013

Change the Weather History Date:

Monday, May 13, 2013

  Actual Average (KGAF) Record (KGAF)
Temperature  
Mean Temperature 68 °F -  
Max Temperature 87 °F 66 °F 92 °F (1977)
Min Temperature 48 °F 42 °F 21 °F (1953)
Cooling Degree Days 2    
Growing Degree Days 18 (Base 50)    
Moisture  
Dew Point 34 °F    
Average Humidity 33    
Maximum Humidity 45    
Minimum Humidity 17    
Precipitation  
Precipitation 0.00 in - - ()
Sea Level Pressure  
Sea Level Pressure 29.66 in    
Wind  
Wind Speed 14 mph (South)    
Max Wind Speed 26 mph    
Max Gust Speed 37 mph    
Visibility 10 miles    
Events      
Averages and records for this station are not official NWS values.
T = Trace of Precipitation, MM = Missing Value Source: NWS Daily Summary

Daily Weather History Graph

Daily Weather History Graph

Search for Another Location

Airport or City:

Trip Planner

Search our weather history database for the weather conditions in past years. The results will help you decide how hot, cold, wet, or windy it might be!

Date:

Astronomy

May. 13, 2013 Rise Set
Actual Time 5:51 AM CDT 9:04 PM CDT
Civil Twilight 5:14 AM CDT 9:42 PM CDT
Nautical Twilight 4:24 AM CDT 10:32 PM CDT
Astronomical Twilight 3:21 AM CDT 11:36 PM CDT
Moon 8:37 AM CDT No Moon Set
Length of Visible Light 16h 28m
Length of Day
15h 13m
Waxing Crescent, 12% of the Moon is Illuminated
May 13
Waxing Crescent
May 17
First Quarter
May 24
Full
May 31
Last Quarter
Jun 8
New

Hourly Weather History & Observations

Time (CDT) Temp. Dew Point Humidity Pressure Visibility Wind Dir Wind Speed Gust Speed Precip Events Conditions
12:15 AM 51.8 °F 26.6 °F 38% 29.92 in 10.0 mi SSE 12.7 mph 18.4 mph N/A   Overcast
12:35 AM 51.8 °F 26.6 °F 38% 29.91 in 10.0 mi SSE 13.8 mph - N/A   Overcast
12:55 AM 51.8 °F 26.6 °F 38% 29.91 in 10.0 mi SSE 16.1 mph 21.9 mph N/A   Overcast
1:15 AM 50.0 °F 24.8 °F 37% 29.91 in 10.0 mi SSE 13.8 mph 24.2 mph N/A   Overcast
1:35 AM 51.8 °F 23.0 °F 33% 29.91 in 10.0 mi South 15.0 mph 23.0 mph N/A   Mostly Cloudy
1:55 AM 50.0 °F 24.8 °F 37% 29.90 in 10.0 mi South 13.8 mph 23.0 mph N/A   Mostly Cloudy
2:15 AM 50.0 °F 24.8 °F 37% 29.90 in 10.0 mi South 13.8 mph 24.2 mph N/A   Mostly Cloudy
2:35 AM 50.0 °F 24.8 °F 37% 29.88 in 10.0 mi SSE 16.1 mph 21.9 mph N/A   Overcast
2:55 AM 50.0 °F 23.0 °F 35% 29.86 in 10.0 mi South 16.1 mph 24.2 mph N/A   Overcast
3:15 AM 50.0 °F 24.8 °F 37% 29.85 in 10.0 mi SSE 12.7 mph - N/A   Overcast
3:35 AM 50.0 °F 23.0 °F 35% 29.83 in 10.0 mi SSE 12.7 mph 19.6 mph N/A   Overcast
3:55 AM 50.0 °F 24.8 °F 37% 29.82 in 10.0 mi SE 13.8 mph 19.6 mph N/A   Mostly Cloudy
4:15 AM 50.0 °F 24.8 °F 37% 29.82 in 10.0 mi SE 11.5 mph 18.4 mph N/A   Overcast
4:35 AM 50.0 °F 24.8 °F 37% 29.81 in 10.0 mi SSE 13.8 mph 19.6 mph N/A   Overcast
4:55 AM 48.2 °F 24.8 °F 40% 29.79 in 10.0 mi SSE 15.0 mph 24.2 mph N/A   Mostly Cloudy
5:15 AM 48.2 °F 24.8 °F 40% 29.78 in 10.0 mi SSE 16.1 mph - N/A   Scattered Clouds
5:35 AM 48.2 °F 26.6 °F 43% 29.75 in 10.0 mi SSE 15.0 mph 21.9 mph N/A   Mostly Cloudy
5:55 AM 48.2 °F 26.6 °F 43% 29.73 in 10.0 mi SSE 12.7 mph 21.9 mph N/A   Mostly Cloudy
6:15 AM 48.2 °F 26.6 °F 43% 29.72 in 10.0 mi SSE 15.0 mph 20.7 mph N/A   Mostly Cloudy
6:35 AM 50.0 °F 26.6 °F 40% 29.71 in 10.0 mi South 17.3 mph 21.9 mph N/A   Mostly Cloudy
6:55 AM 50.0 °F 26.6 °F 40% 29.71 in 10.0 mi South 19.6 mph 26.5 mph N/A   Scattered Clouds
7:15 AM 50.0 °F 26.6 °F 40% 29.69 in 10.0 mi South 15.0 mph - N/A   Scattered Clouds
7:35 AM 50.0 °F 28.4 °F 43% 29.68 in 10.0 mi SSE 16.1 mph 25.3 mph N/A   Mostly Cloudy
7:55 AM 50.0 °F 28.4 °F 43% 29.67 in 10.0 mi SSE 19.6 mph 24.2 mph N/A   Mostly Cloudy
8:15 AM 51.8 °F 28.4 °F 41% 29.66 in 10.0 mi South 16.1 mph 25.3 mph N/A   Mostly Cloudy
8:35 AM 53.6 °F 28.4 °F 38% 29.65 in 10.0 mi SSE 18.4 mph 29.9 mph N/A   Partly Cloudy
8:55 AM 55.4 °F 30.2 °F 38% 29.64 in 10.0 mi South 18.4 mph 26.5 mph N/A   Clear
9:15 AM 55.4 °F 30.2 °F 38% 29.63 in 10.0 mi South 15.0 mph 20.7 mph N/A   Clear
9:35 AM 57.2 °F 32.0 °F 38% 29.63 in 10.0 mi South 17.3 mph 24.2 mph N/A   Clear
9:55 AM 59.0 °F 32.0 °F 36% 29.60 in 10.0 mi South 18.4 mph 25.3 mph N/A   Clear
10:15 AM 62.6 °F 33.8 °F 34% 29.60 in 10.0 mi South 15.0 mph 26.5 mph N/A   Clear
10:35 AM 64.4 °F 35.6 °F 34% 29.58 in 10.0 mi South 16.1 mph 23.0 mph N/A   Clear
10:55 AM 66.2 °F 35.6 °F 32% 29.58 in 10.0 mi SSW 19.6 mph 26.5 mph N/A   Clear
11:15 AM 66.2 °F 37.4 °F 35% 29.58 in 10.0 mi SSW 15.0 mph 27.6 mph N/A   Clear
11:35 AM 69.8 °F 39.2 °F 33% 29.57 in 10.0 mi SSW 18.4 mph 23.0 mph N/A   Clear
11:55 AM 71.6 °F 39.2 °F 31% 29.56 in 10.0 mi SW 13.8 mph 21.9 mph N/A   Clear
12:15 PM 73.4 °F 41.0 °F 31% 29.55 in 10.0 mi SW 11.5 mph 19.6 mph N/A   Clear
12:35 PM 75.2 °F 42.8 °F 31% 29.54 in 10.0 mi WSW 13.8 mph - N/A   Clear
12:55 PM 77.0 °F 44.6 °F 32% 29.53 in 10.0 mi WNW 12.7 mph 16.1 mph N/A   Clear
1:15 PM 80.6 °F 44.6 °F 28% 29.52 in 10.0 mi West 10.4 mph 17.3 mph N/A   Clear
1:35 PM 84.2 °F 44.6 °F 25% 29.52 in 10.0 mi NW 23.0 mph 31.1 mph N/A   Clear
1:55 PM 86.0 °F 42.8 °F 22% 29.51 in 10.0 mi WNW 23.0 mph 31.1 mph N/A   Clear
2:15 PM 86.0 °F 41.0 °F 20% 29.51 in 10.0 mi NW 20.7 mph 36.8 mph N/A   Clear
2:35 PM 87.8 °F 37.4 °F 17% 29.51 in 10.0 mi WNW 20.7 mph 35.7 mph N/A   Clear
3:35 PM 86.0 °F 35.6 °F 17% 29.53 in 10.0 mi NW 26.5 mph 34.5 mph N/A   Clear
3:55 PM 86.0 °F 35.6 °F 17% 29.54 in 10.0 mi NW 26.5 mph 35.7 mph N/A   Clear
4:15 PM 86.0 °F 41.0 °F 20% 29.54 in 10.0 mi North 19.6 mph 27.6 mph N/A   Clear
4:35 PM 84.2 °F 42.8 °F 23% 29.55 in 10.0 mi North 18.4 mph - N/A   Clear
4:55 PM 84.2 °F 41.0 °F 22% 29.56 in 10.0 mi NNW 16.1 mph 26.5 mph N/A   Clear
5:15 PM 84.2 °F 41.0 °F 22% 29.56 in 10.0 mi North 13.8 mph - N/A   Clear
5:35 PM 84.2 °F 41.0 °F 22% 29.56 in 10.0 mi NNW 5.8 mph - N/A   Partly Cloudy
5:55 PM 84.2 °F 41.0 °F 22% 29.57 in 10.0 mi NNW 10.4 mph 16.1 mph N/A   Clear
6:35 PM 80.6 °F 39.2 °F 23% 29.58 in 10.0 mi NNE 11.5 mph 21.9 mph N/A   Clear
7:15 PM 80.6 °F 41.0 °F 24% 29.58 in 10.0 mi NNE 9.2 mph - N/A   Clear
7:35 PM 77.0 °F 41.0 °F 28% 29.59 in 10.0 mi NNE 6.9 mph - N/A   Partly Cloudy
7:55 PM 77.0 °F 41.0 °F 28% 29.59 in 10.0 mi NE 6.9 mph - N/A   Mostly Cloudy
8:15 PM 77.0 °F 41.0 °F 28% 29.59 in 10.0 mi East 3.5 mph - N/A   Partly Cloudy
8:35 PM 75.2 °F 41.0 °F 29% 29.58 in 10.0 mi ESE 4.6 mph - N/A   Scattered Clouds
8:55 PM 73.4 °F 39.2 °F 29% 29.58 in 10.0 mi East 3.5 mph - N/A   Partly Cloudy
9:15 PM 68.0 °F 39.2 °F 35% 29.58 in 10.0 mi SE 5.8 mph - N/A   Clear
9:35 PM 66.2 °F 41.0 °F 40% 29.59 in 10.0 mi ESE 3.5 mph - N/A   Clear
9:55 PM 66.2 °F 41.0 °F 40% 29.58 in 10.0 mi South 4.6 mph - N/A   Clear
10:15 PM 62.6 °F 41.0 °F 45% 29.58 in 10.0 mi South 5.8 mph - N/A   Scattered Clouds
10:35 PM 60.8 °F 39.2 °F 45% 29.58 in 10.0 mi South 5.8 mph - N/A   Partly Cloudy
10:55 PM 66.2 °F 39.2 °F 37% 29.58 in 10.0 mi South 4.6 mph - N/A   Clear
11:15 PM 66.2 °F 39.2 °F 37% 29.57 in 10.0 mi South 9.2 mph - N/A   Clear
11:35 PM 66.2 °F 39.2 °F 37% 29.56 in 10.0 mi South 11.5 mph - N/A   Clear
11:55 PM 68.0 °F 37.4 °F 33% 29.56 in 10.0 mi South 10.4 mph - N/A   Clear